This is the latest recevied weather packets stored in our database for station/object 4S6DRJ-13. If no packets are shown the sender has not sent any weather packets the latest 10 day(s).
| Time | Temp. | Humidity | Pressure | Rain* | Wind** | Luminosity | Snow |
|---|---|---|---|---|---|---|---|
| 1788160239 | 31.67° C | 69% | 1008.3 hPa | 0 mm | 2.24 m/s, 172° | 409 W/m² | - |
| 1788160178 | 31.11° C | 69% | 1008.4 hPa | 0 mm | 1.79 m/s, 257° | 449 W/m² | - |
| 1788160118 | 31.11° C | 70% | 1008.4 hPa | 0 mm | 1.79 m/s, 146° | 351 W/m² | - |
| 1788160056 | 31.11° C | 70% | 1008.3 hPa | 0 mm | 0.89 m/s, 327° | 1136 W/m² | - |
| 1788159995 | 31.11° C | 70% | 1008.4 hPa | 0 mm | 2.24 m/s, 201° | 1136 W/m² | - |
| 1788159934 | 31.11° C | 70% | 1008.6 hPa | 0 mm | 0.45 m/s, 318° | 555 W/m² | - |
| 1788159874 | 30.56° C | 69% | 1008.5 hPa | 0 mm | 0.89 m/s, 281° | 393 W/m² | - |
| 1788159813 | 30.56° C | 71% | 1008.5 hPa | 0 mm | 2.24 m/s, 343° | 663 W/m² | - |
| 1788159751 | 30.56° C | 70% | 1008.7 hPa | 0 mm | 1.34 m/s, 73° | 678 W/m² | - |
| 1788159690 | 30.56° C | 71% | 1008.5 hPa | 0 mm | 0.89 m/s, 184° | 516 W/m² | - |
| 1788159646 | 30.56° C | 70% | 1008.6 hPa | 0 mm | 1.34 m/s, 241° | 461 W/m² | - |
| 1788159568 | 31.11° C | 69% | 1008.6 hPa | 0 mm | 2.24 m/s, 272° | 522 W/m² | - |
| 1788159507 | 31.11° C | 70% | 1008.6 hPa | 0 mm | 2.24 m/s, 319° | 477 W/m² | - |
| 1788159446 | 31.11° C | 71% | 1008.7 hPa | 0 mm | 2.24 m/s, 215° | 495 W/m² | - |
| 1788159386 | 31.11° C | 70% | 1008.5 hPa | 0 mm | 4.92 m/s, 269° | 531 W/m² | - |
| 1788159325 | 31.11° C | 70% | 1008.7 hPa | 0 mm | 1.79 m/s, 290° | 1146 W/m² | - |
| 1788159263 | 31.11° C | 70% | 1008.7 hPa | 0 mm | 1.79 m/s, 175° | 670 W/m² | - |
| 1788159202 | 31.11° C | 71% | 1008.7 hPa | 0 mm | 0.89 m/s, 217° | 355 W/m² | - |
| 1788159141 | 31.11° C | 70% | 1008.6 hPa | 0 mm | 0.89 m/s, 132° | 669 W/m² | - |
| 1788159081 | 31.11° C | 69% | 1008.7 hPa | 0 mm | 0.89 m/s, 27° | 299 W/m² | - |
| 1788159019 | 31.67° C | 69% | 1008.9 hPa | 0 mm | 2.24 m/s, 235° | 324 W/m² | - |
| 1788158958 | 31.67° C | 69% | 1008.7 hPa | 0 mm | 1.79 m/s, 250° | 586 W/m² | - |
| 1788158897 | 31.11° C | 68% | 1008.6 hPa | 0 mm | 2.68 m/s, 210° | 441 W/m² | - |
| 1788158836 | 31.11° C | 68% | 1008.7 hPa | 0 mm | 0.89 m/s, 233° | 492 W/m² | - |
| 1788158775 | 31.11° C | 67% | 1008.9 hPa | 0 mm | 1.34 m/s, 87° | 605 W/m² | - |
* Rain latest hour (hover to see other rain measurements)
** Current wind speed in m/s (hover to see current wind gust speed)